N1001 SBCT-SBBR

Flight info

Callsign N1001
Flight time 1h 27m
Altitude 35000
Route GIKLU UZ5 VUDOT
Aircraft B738/M-SDE2E3FGHIRWXY/LB1

Departure

Time 2026-05-08 16:05
Airport Curitiba-Afonso Pena International Airport (SBCT)

Arrival

Time 2026-05-08 17:33
Airport Presidente Juscelino Kubitschek International Airport (SBBR)
Time Latitude Longitude Altitude Speed Heading
2026-05-08 15:56 -25.53267 -49.17410 2992 ft 0 kts 225°
2026-05-08 15:59 -25.53261 -49.17403 2992 ft 3 kts 225°
2026-05-08 15:59 -25.53247 -49.17389 2992 ft 3 kts 208°
2026-05-08 15:59 -25.53230 -49.17386 2992 ft 3 kts 145°
2026-05-08 15:59 -25.53227 -49.17389 2992 ft 0 kts 139°
2026-05-08 16:01 -25.53262 -49.17344 2992 ft 10 kts 130°
2026-05-08 16:02 -25.53308 -49.17285 2993 ft 10 kts 131°
2026-05-08 16:02 -25.53356 -49.17230 2991 ft 12 kts 136°
2026-05-08 16:02 -25.53423 -49.17158 2990 ft 13 kts 135°
2026-05-08 16:02 -25.53487 -49.17087 2990 ft 13 kts 134°
2026-05-08 16:03 -25.53555 -49.17011 2990 ft 16 kts 136°
2026-05-08 16:03 -25.53614 -49.16915 2989 ft 15 kts 103°
2026-05-08 16:03 -25.53614 -49.16801 2990 ft 14 kts 91°
2026-05-08 16:03 -25.53595 -49.16749 2990 ft 7 kts
2026-05-08 16:04 -25.53560 -49.16782 2989 ft 7 kts 314°
2026-05-08 16:04 -25.53526 -49.16821 2989 ft 14 kts 313°
2026-05-08 16:04 -25.53287 -49.17094 2991 ft 84 kts 313°
2026-05-08 16:04 -25.52748 -49.17739 2987 ft 142 kts 311°
2026-05-08 16:05 -25.51970 -49.18614 3262 ft 165 kts 315°
2026-05-08 16:05 -25.51080 -49.19461 4102 ft 162 kts 306°
2026-05-08 16:05 -25.50666 -49.20535 5219 ft 148 kts 295°
2026-05-08 16:05 -25.50225 -49.21631 5700 ft 168 kts 298°
2026-05-08 16:06 -25.49666 -49.22875 5905 ft 192 kts 298°
2026-05-08 16:06 -25.49010 -49.24252 6193 ft 211 kts 300°
2026-05-08 16:06 -25.48268 -49.25754 6500 ft 229 kts 304°
2026-05-08 16:06 -25.47064 -49.26922 7167 ft 237 kts 330°
2026-05-08 16:07 -25.45490 -49.27540 7973 ft 245 kts 342°
2026-05-08 16:07 -25.43757 -49.27694 8746 ft 259 kts
2026-05-08 16:07 -25.41998 -49.27013 9507 ft 276 kts 17°
2026-05-08 16:07 -25.40267 -49.26067 10298 ft 280 kts 19°
2026-05-08 16:08 -25.38495 -49.25088 10723 ft 296 kts 19°
2026-05-08 16:08 -25.36576 -49.24029 11081 ft 314 kts 20°
2026-05-08 16:08 -25.34573 -49.22932 11234 ft 336 kts 19°
2026-05-08 16:08 -25.32304 -49.22243 11380 ft 344 kts 359°
2026-05-08 16:09 -25.29892 -49.22355 11648 ft 351 kts 351°
2026-05-08 16:09 -25.28237 -49.22539 11994 ft 355 kts 350°
2026-05-08 16:09 -25.24960 -49.22954 12768 ft 360 kts 350°
2026-05-08 16:09 -25.22457 -49.23277 13335 ft 365 kts 350°
2026-05-08 16:10 -25.19911 -49.23599 13785 ft 372 kts 350°
2026-05-08 16:10 -25.17332 -49.23925 14330 ft 373 kts 350°
2026-05-08 16:10 -25.14761 -49.24234 14995 ft 371 kts 351°
2026-05-08 16:10 -25.12173 -49.24539 15459 ft 376 kts 351°
2026-05-08 16:11 -25.09553 -49.24845 15991 ft 378 kts 351°
2026-05-08 16:11 -25.07862 -49.25044 16371 ft 379 kts 351°
2026-05-08 16:11 -25.05227 -49.25349 16957 ft 382 kts 351°
2026-05-08 16:11 -25.02583 -49.25662 17482 ft 383 kts 351°
2026-05-08 16:12 -24.99928 -49.25974 17987 ft 385 kts 351°
2026-05-08 16:12 -24.97257 -49.26282 18443 ft 387 kts 351°
2026-05-08 16:12 -24.94566 -49.26590 18803 ft 391 kts 351°
2026-05-08 16:12 -24.91851 -49.26903 19131 ft 395 kts 351°
2026-05-08 16:13 -24.89092 -49.27223 19428 ft 400 kts 350°
2026-05-08 16:13 -24.86322 -49.27543 19857 ft 401 kts 350°
2026-05-08 16:13 -24.83539 -49.27865 20290 ft 402 kts 350°
2026-05-08 16:13 -24.80744 -49.28188 20530 ft 408 kts 350°
2026-05-08 16:14 -24.77888 -49.28520 20607 ft 417 kts 350°
2026-05-08 16:14 -24.74973 -49.28868 20684 ft 424 kts 350°
2026-05-08 16:14 -24.72030 -49.29211 20943 ft 427 kts 350°
2026-05-08 16:14 -24.69071 -49.29542 21292 ft 427 kts 350°
2026-05-08 16:15 -24.66116 -49.29876 21625 ft 427 kts 349°
2026-05-08 16:15 -24.63153 -49.30217 21874 ft 430 kts 349°
2026-05-08 16:15 -24.60167 -49.30561 22157 ft 432 kts 350°
2026-05-08 16:15 -24.57158 -49.30904 22247 ft 438 kts 349°
2026-05-08 16:16 -24.54119 -49.31257 22491 ft 440 kts 349°
2026-05-08 16:16 -24.51075 -49.31609 22795 ft 440 kts 349°
2026-05-08 16:16 -24.48025 -49.31961 23051 ft 442 kts 349°
2026-05-08 16:16 -24.44958 -49.32316 23189 ft 445 kts 349°
2026-05-08 16:17 -24.41868 -49.32672 23353 ft 447 kts 348°
2026-05-08 16:17 -24.38768 -49.33029 23563 ft 449 kts 348°
2026-05-08 16:17 -24.35657 -49.33387 23772 ft 450 kts 349°
2026-05-08 16:17 -24.32542 -49.33744 24012 ft 450 kts 348°
2026-05-08 16:18 -24.29428 -49.34101 24217 ft 450 kts 349°
2026-05-08 16:18 -24.26295 -49.34459 24406 ft 452 kts 349°
2026-05-08 16:18 -24.23164 -49.34819 24570 ft 453 kts 348°
2026-05-08 16:18 -24.20038 -49.35177 24872 ft 451 kts 349°
2026-05-08 16:19 -24.16916 -49.35534 25071 ft 451 kts 348°
2026-05-08 16:19 -24.13785 -49.35893 25206 ft 454 kts 349°
2026-05-08 16:19 -24.10639 -49.36254 25350 ft 455 kts 349°
2026-05-08 16:19 -24.07485 -49.36615 25515 ft 456 kts 349°
2026-05-08 16:20 -24.04323 -49.36977 25698 ft 457 kts 349°
2026-05-08 16:20 -24.01159 -49.37339 25865 ft 458 kts 349°
2026-05-08 16:20 -23.97988 -49.37701 26066 ft 457 kts 349°
2026-05-08 16:20 -23.94830 -49.38060 26353 ft 455 kts 349°
2026-05-08 16:21 -23.91685 -49.38418 26559 ft 455 kts 348°
2026-05-08 16:21 -23.88527 -49.38778 26710 ft 456 kts 348°
2026-05-08 16:21 -23.85371 -49.39139 26917 ft 456 kts 348°
2026-05-08 16:21 -23.82217 -49.39499 27155 ft 456 kts 348°
2026-05-08 16:22 -23.79060 -49.39858 27371 ft 455 kts 348°
2026-05-08 16:22 -23.75908 -49.40217 27566 ft 456 kts 348°
2026-05-08 16:22 -23.72753 -49.40576 27811 ft 455 kts 348°
2026-05-08 16:22 -23.69609 -49.40934 28059 ft 454 kts 348°
2026-05-08 16:23 -23.66466 -49.41291 28305 ft 454 kts 348°
2026-05-08 16:23 -23.63319 -49.41649 28533 ft 454 kts 348°
2026-05-08 16:23 -23.60177 -49.42006 28800 ft 454 kts 348°
2026-05-08 16:23 -23.57036 -49.42362 29059 ft 453 kts 348°
2026-05-08 16:24 -23.53902 -49.42718 29313 ft 453 kts 348°
2026-05-08 16:24 -23.50766 -49.43074 29580 ft 452 kts 348°
2026-05-08 16:24 -23.47644 -49.43428 29900 ft 451 kts 348°
2026-05-08 16:24 -23.44523 -49.43780 30135 ft 451 kts 348°
2026-05-08 16:25 -23.41364 -49.43825 30297 ft 462 kts
2026-05-08 16:25 -23.38189 -49.43083 30552 ft 467 kts
2026-05-08 16:25 -23.35029 -49.42239 30832 ft 466 kts
2026-05-08 16:25 -23.31923 -49.41433 31090 ft 465 kts
2026-05-08 16:26 -23.28730 -49.40639 31285 ft 465 kts
2026-05-08 16:26 -23.25564 -49.39873 31481 ft 466 kts
2026-05-08 16:26 -23.22403 -49.39112 31732 ft 465 kts
2026-05-08 16:26 -23.19282 -49.38345 31997 ft 466 kts
2026-05-08 16:27 -23.16134 -49.37494 32232 ft 467 kts
2026-05-08 16:27 -23.12982 -49.36602 32468 ft 467 kts
2026-05-08 16:27 -23.09795 -49.35692 32732 ft 467 kts
2026-05-08 16:27 -23.06691 -49.34813 32972 ft 467 kts
2026-05-08 16:28 -23.03503 -49.33921 33209 ft 467 kts
2026-05-08 16:28 -23.00353 -49.33046 33423 ft 468 kts
2026-05-08 16:28 -22.93992 -49.31290 33632 ft 473 kts
2026-05-08 16:29 -22.90801 -49.30406 33913 ft 472 kts
2026-05-08 16:29 -22.87617 -49.29528 34089 ft 473 kts
2026-05-08 16:29 -22.84421 -49.28651 34295 ft 473 kts
2026-05-08 16:29 -22.81235 -49.27778 34549 ft 471 kts
2026-05-08 16:30 -22.78059 -49.26909 34809 ft 470 kts
2026-05-08 16:30 -22.74891 -49.26044 34923 ft 471 kts
2026-05-08 16:30 -22.68531 -49.24308 34918 ft 474 kts
2026-05-08 16:31 -22.62144 -49.22559 34920 ft 472 kts
2026-05-08 16:31 -22.55786 -49.20820 34922 ft 471 kts
2026-05-08 16:32 -22.49455 -49.19005 34955 ft 471 kts
2026-05-08 16:32 -22.43127 -49.17170 34949 ft 470 kts
2026-05-08 16:33 -22.36786 -49.15383 34964 ft 470 kts
2026-05-08 16:33 -22.30417 -49.13826 34976 ft 469 kts
2026-05-08 16:34 -22.24028 -49.12290 34964 ft 471 kts
2026-05-08 16:34 -22.17627 -49.10714 34955 ft 472 kts
2026-05-08 16:35 -22.11218 -49.09126 34945 ft 473 kts
2026-05-08 16:35 -22.04802 -49.07545 34932 ft 473 kts
2026-05-08 16:36 -21.98374 -49.05967 34920 ft 474 kts
2026-05-08 16:36 -21.91949 -49.04389 34933 ft 474 kts
2026-05-08 16:37 -21.85513 -49.02809 34933 ft 474 kts
2026-05-08 16:37 -21.79145 -49.01244 34917 ft 466 kts
2026-05-08 16:38 -21.72856 -48.99699 34919 ft 462 kts
2026-05-08 16:38 -21.66598 -48.98148 34915 ft 461 kts
2026-05-08 16:39 -21.60329 -48.96953 34929 ft 456 kts
2026-05-08 16:39 -21.54040 -48.96008 34932 ft 457 kts
2026-05-08 16:40 -21.47718 -48.95041 34928 ft 460 kts
2026-05-08 16:40 -21.41379 -48.94037 34936 ft 462 kts
2026-05-08 16:41 -21.35008 -48.93018 34939 ft 464 kts
2026-05-08 16:42 -21.25405 -48.91486 34936 ft 466 kts
2026-05-08 16:42 -21.18983 -48.90463 34939 ft 467 kts
2026-05-08 16:43 -21.12556 -48.89433 34929 ft 467 kts
2026-05-08 16:43 -21.06132 -48.88403 34945 ft 467 kts
2026-05-08 16:44 -20.99711 -48.87375 34944 ft 466 kts
2026-05-08 16:44 -20.93302 -48.86350 34949 ft 465 kts
2026-05-08 16:45 -20.86904 -48.85328 34943 ft 465 kts
2026-05-08 16:45 -20.80555 -48.84314 34940 ft 464 kts
2026-05-08 16:46 -20.74177 -48.83297 34948 ft 463 kts
2026-05-08 16:46 -20.67804 -48.82271 34941 ft 463 kts
2026-05-08 16:47 -20.61431 -48.81500 34935 ft 460 kts 359°
2026-05-08 16:47 -20.55053 -48.80906 34945 ft 460 kts 359°
2026-05-08 16:48 -20.49748 -48.80385 34945 ft 461 kts 360°
2026-05-08 16:48 -20.43354 -48.79722 34949 ft 462 kts 360°
2026-05-08 16:49 -20.36935 -48.79046 34950 ft 464 kts 360°
2026-05-08 16:49 -20.30505 -48.78373 34936 ft 465 kts
2026-05-08 16:50 -20.24053 -48.77699 34942 ft 466 kts 360°
2026-05-08 16:50 -20.17598 -48.77027 34946 ft 467 kts 360°
2026-05-08 16:51 -20.11128 -48.76353 34943 ft 467 kts 360°
2026-05-08 16:51 -20.04656 -48.75678 34935 ft 467 kts
2026-05-08 16:52 -19.98185 -48.75004 34942 ft 468 kts
2026-05-08 16:52 -19.91701 -48.74330 34940 ft 468 kts
2026-05-08 16:53 -19.81978 -48.73320 34939 ft 468 kts
2026-05-08 16:53 -19.75495 -48.72647 34950 ft 468 kts
2026-05-08 16:54 -19.69015 -48.71975 34953 ft 468 kts
2026-05-08 16:54 -19.62525 -48.71303 34964 ft 468 kts
2026-05-08 16:55 -19.56033 -48.70631 34958 ft 468 kts
2026-05-08 16:55 -19.49581 -48.69963 34953 ft 468 kts
2026-05-08 16:56 -19.43099 -48.69293 34969 ft 468 kts
2026-05-08 16:56 -19.36615 -48.68623 34954 ft 468 kts
2026-05-08 16:57 -19.30096 -48.67951 34959 ft 468 kts
2026-05-08 16:57 -19.23650 -48.67286 34964 ft 468 kts
2026-05-08 16:58 -19.17167 -48.66618 34969 ft 467 kts
2026-05-08 16:58 -19.10692 -48.66003 34962 ft 467 kts 360°
2026-05-08 16:59 -19.04208 -48.65427 34961 ft 467 kts 360°
2026-05-08 16:59 -18.97729 -48.64846 34970 ft 467 kts 360°
2026-05-08 17:00 -18.91242 -48.64257 34976 ft 467 kts 360°
2026-05-08 17:00 -18.84762 -48.63667 34978 ft 467 kts 360°
2026-05-08 17:01 -18.78278 -48.63079 34977 ft 468 kts 360°
2026-05-08 17:01 -18.71784 -48.62489 34978 ft 468 kts
2026-05-08 17:02 -18.65286 -48.61899 34980 ft 468 kts
2026-05-08 17:02 -18.58792 -48.61300 34975 ft 469 kts
2026-05-08 17:03 -18.52292 -48.60698 34969 ft 468 kts
2026-05-08 17:03 -18.45797 -48.60100 34973 ft 468 kts
2026-05-08 17:04 -18.39310 -48.59502 34972 ft 468 kts
2026-05-08 17:04 -18.32825 -48.58905 34969 ft 468 kts
2026-05-08 17:05 -18.26403 -48.57615 34981 ft 474 kts 12°
2026-05-08 17:05 -18.20122 -48.55429 34966 ft 476 kts 14°
2026-05-08 17:06 -18.13849 -48.53205 34970 ft 475 kts 14°
2026-05-08 17:06 -18.07552 -48.51068 34966 ft 475 kts 13°
2026-05-08 17:07 -18.01255 -48.48981 34969 ft 474 kts 13°
2026-05-08 17:07 -17.94959 -48.46907 34968 ft 474 kts 13°
2026-05-08 17:08 -17.88657 -48.44834 34978 ft 474 kts 13°
2026-05-08 17:08 -17.82365 -48.42761 34969 ft 474 kts 13°
2026-05-08 17:09 -17.76072 -48.40687 34979 ft 474 kts 13°
2026-05-08 17:09 -17.69759 -48.38608 34979 ft 475 kts 13°
2026-05-08 17:10 -17.63455 -48.36534 34978 ft 474 kts 13°
2026-05-08 17:10 -17.57147 -48.34460 34983 ft 475 kts 13°
2026-05-08 17:11 -17.50840 -48.32388 34976 ft 475 kts 13°
2026-05-08 17:11 -17.47680 -48.31351 34754 ft 479 kts 14°
2026-05-08 17:11 -17.44479 -48.30302 34153 ft 482 kts 14°
2026-05-08 17:12 -17.41287 -48.29255 33451 ft 481 kts 14°
2026-05-08 17:12 -17.38093 -48.28207 32713 ft 481 kts 14°
2026-05-08 17:12 -17.35268 -48.27280 32076 ft 481 kts 15°
2026-05-08 17:12 -17.32072 -48.26232 31345 ft 482 kts 15°
2026-05-08 17:13 -17.28867 -48.25182 30565 ft 484 kts 15°
2026-05-08 17:13 -17.25647 -48.24127 29709 ft 486 kts 15°
2026-05-08 17:13 -17.22408 -48.23067 28796 ft 487 kts 15°
2026-05-08 17:13 -17.19173 -48.22008 27897 ft 487 kts 15°
2026-05-08 17:14 -17.15936 -48.20948 26983 ft 488 kts 16°
2026-05-08 17:14 -17.12695 -48.19888 26044 ft 489 kts 16°
2026-05-08 17:14 -17.09447 -48.18826 25160 ft 489 kts 15°
2026-05-08 17:14 -17.06226 -48.17773 24450 ft 483 kts 16°
2026-05-08 17:15 -17.03028 -48.16729 23750 ft 478 kts 17°
2026-05-08 17:15 -16.99868 -48.15696 22955 ft 474 kts 17°
2026-05-08 17:15 -16.96736 -48.14673 22216 ft 468 kts 17°
2026-05-08 17:15 -16.93648 -48.13666 21510 ft 462 kts 17°
2026-05-08 17:16 -16.90606 -48.12673 20824 ft 456 kts 17°
2026-05-08 17:16 -16.87596 -48.11691 20149 ft 451 kts 17°
2026-05-08 17:16 -16.84618 -48.10720 19473 ft 446 kts 17°
2026-05-08 17:16 -16.81665 -48.09758 18790 ft 443 kts 17°
2026-05-08 17:17 -16.78712 -48.08864 18056 ft 440 kts 11°
2026-05-08 17:17 -16.75673 -48.08747 17266 ft 437 kts 352°
2026-05-08 17:17 -16.72749 -48.09370 16626 ft 430 kts 347°
2026-05-08 17:17 -16.69840 -48.10075 15908 ft 426 kts 347°
2026-05-08 17:18 -16.66982 -48.10762 15221 ft 416 kts 347°
2026-05-08 17:18 -16.64212 -48.11415 14586 ft 400 kts 348°
2026-05-08 17:18 -16.61524 -48.12037 13960 ft 387 kts 348°
2026-05-08 17:18 -16.58937 -48.12629 13319 ft 375 kts 348°
2026-05-08 17:19 -16.56429 -48.13198 12701 ft 363 kts 348°
2026-05-08 17:19 -16.54000 -48.13747 12145 ft 352 kts 348°
2026-05-08 17:19 -16.51613 -48.14286 11623 ft 351 kts 348°
2026-05-08 17:19 -16.49237 -48.14822 11285 ft 344 kts 348°
2026-05-08 17:20 -16.46931 -48.15343 11140 ft 336 kts 348°
2026-05-08 17:20 -16.44662 -48.15854 10991 ft 332 kts 348°
2026-05-08 17:20 -16.42389 -48.16366 10862 ft 335 kts 348°
2026-05-08 17:20 -16.40100 -48.16884 10731 ft 337 kts 348°
2026-05-08 17:21 -16.37812 -48.17401 10571 ft 337 kts 347°
2026-05-08 17:21 -16.35519 -48.17919 10445 ft 337 kts 347°
2026-05-08 17:21 -16.33231 -48.18436 10297 ft 337 kts 348°
2026-05-08 17:21 -16.30942 -48.18952 10154 ft 336 kts 348°
2026-05-08 17:22 -16.28659 -48.19466 10018 ft 335 kts 347°
2026-05-08 17:22 -16.26373 -48.19981 9715 ft 335 kts 347°
2026-05-08 17:22 -16.24101 -48.20490 9417 ft 333 kts 348°
2026-05-08 17:22 -16.21846 -48.20996 9115 ft 327 kts 348°
2026-05-08 17:23 -16.19675 -48.21483 8818 ft 311 kts 348°
2026-05-08 17:23 -16.17605 -48.21946 8552 ft 297 kts 348°
2026-05-08 17:23 -16.15618 -48.22335 8285 ft 285 kts 357°
2026-05-08 17:23 -16.13704 -48.22102 8087 ft 272 kts 13°
2026-05-08 17:24 -16.11901 -48.21641 7834 ft 262 kts 14°
2026-05-08 17:24 -16.10742 -48.21330 7707 ft 256 kts 14°
2026-05-08 17:24 -16.09042 -48.20874 7483 ft 249 kts 14°
2026-05-08 17:24 -16.07386 -48.20438 7251 ft 241 kts 14°
2026-05-08 17:25 -16.05794 -48.20022 7080 ft 232 kts 14°
2026-05-08 17:25 -16.04230 -48.19619 6903 ft 233 kts 14°
2026-05-08 17:25 -16.02654 -48.19213 6711 ft 233 kts 14°
2026-05-08 17:25 -16.01081 -48.18808 6498 ft 231 kts 13°
2026-05-08 17:26 -15.99540 -48.18414 6276 ft 223 kts 13°
2026-05-08 17:26 -15.98017 -48.18294 6095 ft 220 kts 355°
2026-05-08 17:26 -15.96497 -48.18437 5929 ft 216 kts 356°
2026-05-08 17:26 -15.95045 -48.18551 5712 ft 204 kts 357°
2026-05-08 17:27 -15.93690 -48.18379 5618 ft 196 kts 28°
2026-05-08 17:27 -15.92710 -48.17410 5630 ft 195 kts 54°
2026-05-08 17:27 -15.91992 -48.16214 5567 ft 196 kts 58°
2026-05-08 17:27 -15.91315 -48.15024 5569 ft 188 kts 58°
2026-05-08 17:28 -15.90642 -48.13843 5574 ft 190 kts 58°
2026-05-08 17:28 -15.89969 -48.12681 5587 ft 187 kts 56°
2026-05-08 17:28 -15.89342 -48.11536 5575 ft 183 kts 68°
2026-05-08 17:28 -15.89155 -48.10214 5553 ft 183 kts 81°
2026-05-08 17:29 -15.89040 -48.08904 5523 ft 186 kts 83°
2026-05-08 17:29 -15.88944 -48.07585 5481 ft 177 kts 84°
2026-05-08 17:29 -15.88863 -48.06356 5375 ft 164 kts 84°
2026-05-08 17:29 -15.88786 -48.05190 5332 ft 163 kts 84°
2026-05-08 17:30 -15.88712 -48.04036 5263 ft 157 kts 83°
2026-05-08 17:30 -15.88636 -48.02868 5182 ft 160 kts 84°
2026-05-08 17:30 -15.88563 -48.01729 5014 ft 155 kts 83°
2026-05-08 17:30 -15.88491 -48.00613 4779 ft 153 kts 84°
2026-05-08 17:31 -15.88423 -47.99539 4633 ft 147 kts 82°
2026-05-08 17:31 -15.88349 -47.98462 4433 ft 149 kts 86°
2026-05-08 17:31 -15.88285 -47.97379 4239 ft 150 kts 86°
2026-05-08 17:31 -15.88216 -47.96306 4009 ft 147 kts 86°
2026-05-08 17:32 -15.88142 -47.95220 3772 ft 154 kts 85°
2026-05-08 17:32 -15.88072 -47.94096 3569 ft 156 kts 85°
2026-05-08 17:32 -15.88008 -47.93038 3482 ft 130 kts 86°
2026-05-08 17:32 -15.87978 -47.92465 3478 ft 51 kts 84°
2026-05-08 17:33 -15.87943 -47.92112 3472 ft 47 kts 84°
2026-05-08 17:33 -15.87875 -47.91817 3466 ft 38 kts 61°
2026-05-08 17:33 -15.87749 -47.91609 3460 ft 31 kts 57°
2026-05-08 17:33 -15.87570 -47.91560 3464 ft 28 kts 356°
2026-05-08 17:34 -15.87436 -47.91568 3470 ft 14 kts 356°
2026-05-08 17:34 -15.87320 -47.91577 3469 ft 18 kts 356°
2026-05-08 17:34 -15.87206 -47.91584 3471 ft 15 kts 356°
2026-05-08 17:34 -15.87104 -47.91591 3470 ft 14 kts 355°
2026-05-08 17:35 -15.86949 -47.91603 3471 ft 27 kts 356°
2026-05-08 17:35 -15.86762 -47.91616 3471 ft 26 kts 357°
2026-05-08 17:35 -15.86635 -47.91724 3470 ft 24 kts 313°
2026-05-08 17:35 -15.86617 -47.91884 3470 ft 23 kts 267°
2026-05-08 17:36 -15.86628 -47.92047 3471 ft 22 kts 266°
2026-05-08 17:36 -15.86612 -47.92195 3470 ft 21 kts 310°
2026-05-08 17:36 -15.86607 -47.92270 3470 ft 11 kts 213°
2026-05-08 17:36 -15.86675 -47.92306 3470 ft 11 kts 206°
2026-05-08 17:37 -15.86687 -47.92312 3471 ft 0 kts 206°